Great Falls, MT

8:18 PM MDT on April 26, 2017 (GMT -0600)
Great Falls International

Weather History for KGTF - November, 2014

Change the Weather History Date:

Saturday, November 29, 2014

  Actual Average Record
Temperature  
Mean Temperature -8 °F 28 °F  
Max Temperature -1 °F 37 °F 64 °F (1932)
Min Temperature -15 °F 19 °F -22 °F (1896)
Degree Days  
Heating Degree Days 73 37  
Month to date heating degree days 1082 913  
Since 1 July heating degree days 1814 1933  
Cooling Degree Days 0 0  
Month to date cooling degree days 0 0  
Year to date cooling degree days 350 298  
Moisture  
Dew Point -12 °F    
Average Humidity 75    
Maximum Humidity 90    
Minimum Humidity 59    
Precipitation  
Precipitation 0.51 in 0.02 in 0.58 in (1919)
Month to date precipitation 1.38 0.57  
Year to date precipitation 19.03 14.18  
Snow  
Snow 6.10 in 0.30 in 6.10 in (2014)
Month to date snowfall 16.3 7.8  
Since 1 July snowfall 17.4 13.4  
Since 1 September snowfall 17.4 13.1  
Snow Depth 1.00 in    
Sea Level Pressure  
Sea Level Pressure 29.91 in    
Wind  
Wind Speed 9 mph (WNW)    
Max Wind Speed 17 mph    
Max Gust Speed 20 mph    
Visibility 4 miles    
Events Fog , Snow    
T = Trace of Precipitation, MM = Missing Value Source: NWS Daily Summary

Daily Weather History Graph

Daily Weather History Graph

Search for Another Location

Airport or City:

Trip Planner

Search our weather history database for the weather conditions in past years. The results will help you decide how hot, cold, wet, or windy it might be!

Date:

Astronomy

Nov. 29, 2014 Rise Set
Actual Time 7:49 AM MST 4:37 PM MST
Civil Twilight 7:14 AM MST 5:12 PM MST
Nautical Twilight 6:36 AM MST 5:50 PM MST
Astronomical Twilight 5:59 AM MST 6:27 PM MST
Moon 1:01 PM MST (11/29) No Moon Set
Length of Visible Light 9h 57m
Length of Day
8h 47m
First Quarter, 54% of the Moon is Illuminated
Nov 29
First Quarter
Dec 6
Full
Dec 14
Last Quarter
Dec 21
New
Dec 28
First Quarter

Hourly Weather History & Observations

Time (MST) Temp. Windchill Dew Point Humidity Pressure Visibility Wind Dir Wind Speed Gust Speed Precip Events Conditions
12:53 AM -0.9 °F -19.9 °F -8.0 °F 72% 29.77 in 10.0 mi NNW 13.8 mph - N/A   Overcast
1:02 AM -0.4 °F -18.4 °F -9.4 °F 66% 29.63 in 10.0 mi NNW 12.7 mph - N/A   Overcast
1:53 AM -2.9 °F -21.6 °F -9.0 °F 75% 29.77 in 6.0 mi North 12.7 mph - 0.00 in Snow Light Snow
2:53 AM -4.0 °F -25.2 °F -9.9 °F 76% 29.79 in 8.0 mi NNW 16.1 mph - 0.00 in   Overcast
3:20 AM -4.0 °F -23.7 °F -9.4 °F 78% 29.64 in 2.5 mi NNW 13.8 mph - 0.00 in Snow Light Snow
3:53 AM -5.1 °F -25.9 °F -11.0 °F 76% 29.88 in 2.0 mi NNW 15.0 mph - 0.00 in   Overcast
4:08 AM -5.8 °F -25.2 °F -9.4 °F 84% 29.65 in 7.0 mi NNW 12.7 mph - N/A   Overcast
4:39 AM -5.8 °F -23.4 °F -9.4 °F 84% 29.64 in 2.5 mi NNW 10.4 mph - 0.00 in Snow Light Snow
4:48 AM -5.8 °F -24.4 °F -9.4 °F 84% 29.66 in 0.5 mi NNW 11.5 mph - 0.00 in Snow Light Snow
4:53 AM -6.0 °F -24.6 °F -9.9 °F 83% 29.91 in 0.5 mi NNW 11.5 mph - 0.00 in Snow Light Snow
5:04 AM -5.8 °F -22.4 °F -9.4 °F 84% 29.67 in 0.2 mi NNW 9.2 mph - 0.03 in Fog , Snow Snow
5:33 AM -5.8 °F -23.4 °F -11.2 °F 77% 29.66 in 1.0 mi NNW 10.4 mph - 0.06 in Snow Light Snow
5:45 AM -7.6 °F -25.7 °F -9.4 °F 92% 29.67 in 0.8 mi NNW 10.4 mph - 0.07 in Snow Light Snow
5:53 AM -7.1 °F -22.8 °F -11.0 °F 83% 29.93 in 0.8 mi North 8.1 mph - 0.07 in Snow Light Snow
6:13 AM -7.6 °F -24.6 °F -11.2 °F 84% 29.67 in 0.8 mi NNW 9.2 mph - 0.01 in Snow Light Snow
6:24 AM -7.6 °F -24.6 °F -11.2 °F 84% 29.66 in 0.8 mi NNW 9.2 mph - 0.02 in Snow Light Snow
6:43 AM -7.6 °F -22.1 °F -9.4 °F 92% 29.67 in 0.2 mi NNW 6.9 mph - 0.03 in Fog , Snow Snow
6:53 AM -7.1 °F -22.8 °F -9.9 °F 87% 29.95 in 0.2 mi NW 8.1 mph - 0.09 in Fog , Snow Snow
7:01 AM -7.6 °F -20.6 °F -11.2 °F 84% 29.67 in 0.2 mi NNW 5.8 mph - 0.04 in Fog , Snow Heavy Snow
7:50 AM -7.6 °F -23.4 °F -11.2 °F 84% 29.71 in 0.8 mi NW 8.1 mph - 0.21 in Snow Light Snow
7:53 AM -7.1 °F -23.9 °F -11.0 °F 83% 29.99 in 0.8 mi NW 9.2 mph - 0.21 in Snow Light Snow
8:50 AM -7.6 °F -25.7 °F -11.2 °F 84% 29.74 in 0.5 mi NW 10.4 mph - 0.07 in Snow Light Snow
8:53 AM -8.0 °F -25.0 °F -11.9 °F 83% 30.03 in 0.5 mi NW 9.2 mph - 0.07 in Snow Light Snow
9:27 AM -9.4 °F -22.7 °F -13.0 °F 84% 29.75 in 0.5 mi NW 5.8 mph - 0.02 in Fog , Snow Snow
9:35 AM -9.4 °F -24.3 °F -13.0 °F 84% 29.76 in 0.5 mi NW 6.9 mph - 0.03 in Snow Light Snow
9:43 AM -9.4 °F -24.3 °F -14.8 °F 77% 29.76 in 1.2 mi WNW 6.9 mph - 0.03 in Snow Light Snow
9:53 AM -9.9 °F -28.6 °F -14.1 °F 82% 30.06 in 2.0 mi WNW 10.4 mph - 0.03 in Snow Light Snow
10:01 AM -9.4 °F -27.9 °F -14.8 °F 77% 29.77 in 3.0 mi West 10.4 mph - 0.00 in Snow Light Snow
10:53 AM -9.0 °F -27.4 °F -18.0 °F 65% 30.11 in 10.0 mi NW 10.4 mph - 0.00 in   Mostly Cloudy
11:53 AM -8.0 °F -19.2 °F -16.1 °F 68% 30.11 in 10.0 mi West 4.6 mph - N/A   Clear
12:53 PM -7.1 °F -21.4 °F -16.1 °F 65% 30.10 in 10.0 mi West 6.9 mph - N/A   Mostly Cloudy
1:53 PM -6.0 °F -14.7 °F -17.0 °F 59% 30.13 in 10.0 mi West 3.5 mph - N/A   Clear
2:53 PM -7.1 °F -18.1 °F -17.0 °F 62% 30.15 in 10.0 mi West 4.6 mph - N/A   Clear
3:53 PM -14.1 °F -31.3 °F -20.9 °F 71% 30.18 in 10.0 mi NW 8.1 mph - N/A   Clear
4:53 PM -9.0 °F -22.3 °F -15.0 °F 75% 30.18 in 8.0 mi SW 5.8 mph - N/A   Overcast
5:48 PM -7.6 °F -20.6 °F -13.0 °F 77% 29.88 in 1.8 mi WSW 5.8 mph - 0.00 in Snow Light Snow
5:53 PM -8.0 °F -21.0 °F -13.0 °F 79% 30.19 in 1.5 mi SW 5.8 mph - 0.00 in Snow Light Snow
6:06 PM -7.6 °F -22.1 °F -11.2 °F 84% 29.89 in 1.0 mi WSW 6.9 mph - 0.00 in Snow Light Snow
6:50 PM -7.6 °F -20.6 °F -11.2 °F 84% 29.89 in 2.5 mi West 5.8 mph - 0.01 in Snow Light Snow
6:53 PM -7.1 °F -18.1 °F -11.0 °F 83% 30.19 in 2.5 mi West 4.6 mph - 0.01 in Snow Light Snow
7:09 PM -7.6 °F -20.6 °F -11.2 °F 84% 29.90 in 1.2 mi WSW 5.8 mph - 0.01 in Snow Light Snow
7:29 PM -7.6 °F -22.1 °F -11.2 °F 84% 29.90 in 1.5 mi SW 6.9 mph - 0.01 in Snow Light Snow
7:53 PM -7.1 °F -21.4 °F -11.0 °F 83% 30.23 in 1.5 mi WSW 6.9 mph - 0.02 in Snow Light Snow
8:22 PM -7.6 °F -22.1 °F -11.2 °F 84% 29.93 in 2.5 mi WSW 6.9 mph - 0.00 in Snow Light Snow
8:37 PM -7.6 °F -22.1 °F -11.2 °F 84% 29.94 in 3.0 mi SW 6.9 mph - 0.00 in Snow Light Snow
8:53 PM -6.0 °F -20.1 °F -11.0 °F 79% 30.25 in 2.5 mi SW 6.9 mph - 0.00 in Snow Light Snow
9:01 PM -5.8 °F -21.2 °F -9.4 °F 84% 29.95 in 3.0 mi SW 8.1 mph - 0.00 in Snow Light Snow
9:11 PM -5.8 °F -18.4 °F -9.4 °F 84% 29.94 in 2.5 mi SW 5.8 mph - 0.00 in Snow Light Snow
9:53 PM -6.0 °F -21.5 °F -9.9 °F 83% 30.27 in 3.0 mi WSW 8.1 mph - 0.01 in Snow Light Snow
10:53 PM -9.9 °F -26.3 °F -14.1 °F 82% 30.30 in 9.0 mi WSW 8.1 mph - 0.00 in   Mostly Cloudy
11:53 PM -13.0 °F -28.6 °F -16.1 °F 86% 30.33 in 9.0 mi South 6.9 mph - N/A   Clear